TimeEST,TemperatureF,Dew PointF,Humidity,Sea Level PressureIn,VisibilityMPH,Wind Direction,Wind SpeedMPH,Gust SpeedMPH,PrecipitationIn,Events,Conditions,WindDirDegrees,DateUTC
12:15 AM,45.5,44.1,95,29.86,10.0,WSW,8.1,-,N/A,,Overcast,250,2012-12-11 05:15:00
12:35 AM,44.8,43.5,95,29.85,10.0,West,8.1,-,N/A,,Mostly Cloudy,260,2012-12-11 05:35:00
12:55 AM,44.6,43.0,94,29.85,10.0,WSW,9.2,-,N/A,,Scattered Clouds,250,2012-12-11 05:55:00
1:15 AM,44.1,42.4,94,29.85,10.0,WSW,6.9,-,N/A,,Overcast,250,2012-12-11 06:15:00
1:35 AM,43.0,41.4,94,29.86,10.0,West,8.1,-,N/A,,Mostly Cloudy,270,2012-12-11 06:35:00
1:55 AM,42.3,39.9,91,29.86,10.0,West,6.9,-,N/A,,Mostly Cloudy,280,2012-12-11 06:55:00
2:15 AM,42.1,39.4,90,29.87,10.0,West,6.9,-,N/A,,Overcast,270,2012-12-11 07:15:00
2:35 AM,41.9,39.2,90,29.87,10.0,Calm,Calm,-,N/A,,Mostly Cloudy,0,2012-12-11 07:35:00
2:55 AM,41.5,38.8,90,29.87,10.0,Calm,Calm,-,N/A,,Mostly Cloudy,0,2012-12-11 07:55:00
3:15 AM,41.0,37.9,89,29.87,10.0,Calm,Calm,-,N/A,,Mostly Cloudy,0,2012-12-11 08:15:00
3:35 AM,40.3,38.5,93,29.88,10.0,Calm,Calm,-,N/A,,Overcast,0,2012-12-11 08:35:00
3:55 AM,40.1,39.2,97,29.89,10.0,Calm,Calm,-,N/A,,Overcast,0,2012-12-11 08:55:00
4:15 AM,40.1,39.2,97,29.88,10.0,Calm,Calm,-,N/A,,Overcast,0,2012-12-11 09:15:00
4:35 AM,39.6,38.7,97,29.89,10.0,Calm,Calm,-,0.01,,Mostly Cloudy,0,2012-12-11 09:35:00
4:55 AM,38.8,38.1,97,29.89,10.0,Calm,Calm,-,0.01,,Scattered Clouds,0,2012-12-11 09:55:00
5:15 AM,37.8,36.9,97,29.90,10.0,Calm,Calm,-,N/A,,Scattered Clouds,0,2012-12-11 10:15:00
5:35 AM,37.0,36.5,98,29.91,10.0,Calm,Calm,-,N/A,,Scattered Clouds,0,2012-12-11 10:35:00
5:55 AM,36.9,36.1,97,29.92,10.0,SSE,3.5,-,N/A,,Mostly Cloudy,150,2012-12-11 10:55:00
6:15 AM,38.3,36.5,93,29.93,10.0,Calm,Calm,-,N/A,,Mostly Cloudy,0,2012-12-11 11:15:00
6:35 AM,38.8,36.3,91,29.95,10.0,Calm,Calm,-,N/A,,Overcast,0,2012-12-11 11:35:00
6:55 AM,39.2,34.7,84,29.96,10.0,North,10.4,-,N/A,,Mostly Cloudy,360,2012-12-11 11:55:00
7:15 AM,38.8,34.7,85,29.96,10.0,North,6.9,-,N/A,,Mostly Cloudy,10,2012-12-11 12:15:00
7:35 AM,38.8,34.7,85,29.97,10.0,North,9.2,-,N/A,,Overcast,10,2012-12-11 12:35:00
7:55 AM,39.0,34.2,83,29.97,10.0,North,8.1,-,N/A,,Overcast,10,2012-12-11 12:55:00
8:15 AM,38.8,34.3,84,29.99,10.0,North,5.8,-,N/A,,Overcast,360,2012-12-11 13:15:00
8:35 AM,38.8,34.5,84,29.99,10.0,North,5.8,-,N/A,,Overcast,10,2012-12-11 13:35:00
8:55 AM,39.2,34.5,83,30.01,10.0,North,3.5,-,N/A,,Overcast,360,2012-12-11 13:55:00
9:15 AM,39.4,33.6,80,30.01,10.0,NE,8.1,-,N/A,,Overcast,40,2012-12-11 14:15:00
9:35 AM,39.4,34.0,81,30.03,10.0,NE,5.8,-,N/A,,Overcast,40,2012-12-11 14:35:00
9:55 AM,39.6,34.2,81,30.03,10.0,NNE,8.1,-,N/A,,Overcast,20,2012-12-11 14:55:00
10:15 AM,39.6,33.6,79,30.04,10.0,NNE,9.2,-,N/A,,Overcast,30,2012-12-11 15:15:00
10:35 AM,39.9,34.2,80,30.04,10.0,NNE,8.1,-,N/A,,Overcast,30,2012-12-11 15:35:00
10:55 AM,40.1,33.3,77,30.05,10.0,NNE,3.5,-,N/A,,Overcast,20,2012-12-11 15:55:00
11:15 AM,40.8,34.3,78,30.03,10.0,East,5.8,-,N/A,,Mostly Cloudy,90,2012-12-11 16:15:00
11:35 AM,41.2,34.5,77,30.01,10.0,East,5.8,-,N/A,,Mostly Cloudy,90,2012-12-11 16:35:00
11:55 AM,41.4,34.3,76,30.03,10.0,ESE,3.5,-,N/A,,Overcast,110,2012-12-11 16:55:00
12:15 PM,42.4,34.9,75,30.02,10.0,ESE,3.5,-,N/A,,Mostly Cloudy,120,2012-12-11 17:15:00
12:35 PM,42.8,35.1,74,30.03,10.0,East,5.8,-,N/A,,Scattered Clouds,80,2012-12-11 17:35:00
12:55 PM,43.7,34.9,71,30.02,10.0,East,5.8,-,N/A,,Mostly Cloudy,90,2012-12-11 17:55:00
1:15 PM,43.0,34.5,72,30.01,10.0,NNE,5.8,-,N/A,,Mostly Cloudy,20,2012-12-11 18:15:00
1:35 PM,43.2,35.2,74,30.01,10.0,North,9.2,-,N/A,,Scattered Clouds,350,2012-12-11 18:35:00
1:55 PM,43.2,35.1,73,30.01,10.0,NNW,6.9,-,N/A,,Clear,330,2012-12-11 18:55:00
2:15 PM,42.1,34.9,76,30.01,10.0,NW,10.4,-,N/A,,Clear,320,2012-12-11 19:15:00
2:35 PM,41.5,34.2,75,30.02,10.0,NW,8.1,-,N/A,,Clear,320,2012-12-11 19:35:00
2:55 PM,41.9,34.0,73,30.03,10.0,NNW,6.9,-,N/A,,Clear,330,2012-12-11 19:55:00
3:15 PM,42.3,33.3,70,30.03,10.0,NNW,6.9,-,N/A,,Clear,330,2012-12-11 20:15:00
3:35 PM,42.8,33.4,70,30.04,10.0,NNW,6.9,-,N/A,,Clear,330,2012-12-11 20:35:00
3:55 PM,41.9,32.9,70,30.04,10.0,NW,6.9,-,N/A,,Clear,320,2012-12-11 20:55:00
4:15 PM,41.5,32.4,70,30.05,10.0,NNW,5.8,-,N/A,,Clear,340,2012-12-11 21:15:00
4:35 PM,40.8,32.5,72,30.05,10.0,NNW,9.2,-,N/A,,Clear,330,2012-12-11 21:35:00
4:55 PM,39.7,32.5,75,30.06,10.0,NNW,8.1,-,N/A,,Clear,340,2012-12-11 21:55:00
5:15 PM,39.2,32.2,76,30.06,10.0,Calm,Calm,-,N/A,,Clear,0,2012-12-11 22:15:00
5:35 PM,39.0,31.5,74,30.07,10.0,NW,3.5,-,N/A,,Clear,310,2012-12-11 22:35:00
5:55 PM,36.9,32.9,86,30.07,10.0,Calm,Calm,-,N/A,,Clear,0,2012-12-11 22:55:00
6:15 PM,36.7,33.4,88,30.08,10.0,Calm,Calm,-,N/A,,Clear,0,2012-12-11 23:15:00
6:35 PM,36.0,33.3,90,30.08,10.0,West,3.5,-,N/A,,Clear,270,2012-12-11 23:35:00
6:55 PM,34.9,32.4,91,30.09,10.0,Calm,Calm,-,N/A,,Clear,0,2012-12-11 23:55:00
7:15 PM,34.5,32.2,91,30.09,10.0,Calm,Calm,-,N/A,,Clear,0,2012-12-12 00:15:00
7:35 PM,35.1,32.4,90,30.09,10.0,Calm,Calm,-,N/A,,Clear,0,2012-12-12 00:35:00
7:55 PM,34.2,32.4,93,30.09,10.0,Calm,Calm,-,N/A,,Clear,0,2012-12-12 00:55:00
8:15 PM,34.0,32.0,92,30.10,10.0,Calm,Calm,-,N/A,,Clear,0,2012-12-12 01:15:00
8:35 PM,33.6,32.2,94,30.10,10.0,Calm,Calm,-,N/A,,Clear,0,2012-12-12 01:35:00
8:55 PM,33.4,32.0,94,30.11,10.0,Calm,Calm,-,N/A,,Clear,0,2012-12-12 01:55:00
9:15 PM,32.9,31.8,96,30.11,10.0,Calm,Calm,-,N/A,,Clear,0,2012-12-12 02:15:00
9:35 PM,32.2,31.3,96,30.12,10.0,Calm,Calm,-,N/A,,Clear,0,2012-12-12 02:35:00
9:55 PM,32.0,31.3,97,30.12,10.0,Calm,Calm,-,N/A,,Clear,0,2012-12-12 02:55:00
10:15 PM,32.0,31.3,97,30.12,10.0,Calm,Calm,-,N/A,,Clear,0,2012-12-12 03:15:00
10:35 PM,32.9,31.6,95,30.14,10.0,Calm,Calm,-,N/A,,Clear,0,2012-12-12 03:35:00
10:55 PM,32.9,32.0,96,30.14,7.0,Calm,Calm,-,N/A,,Clear,0,2012-12-12 03:55:00
11:15 PM,32.9,32.2,97,30.15,7.0,Calm,Calm,-,N/A,,Scattered Clouds,0,2012-12-12 04:15:00
11:35 PM,33.3,32.9,99,30.14,7.0,Calm,Calm,-,N/A,,Scattered Clouds,0,2012-12-12 04:35:00
11:55 PM,32.9,32.4,98,30.15,7.0,Calm,Calm,-,N/A,,Clear,0,2012-12-12 04:55:00